User: anonymous   Login
Location: Bonn
(50.7330°N, 7.1000°E)
Time: 14:20:39
(UTC+02:00)
Language:

Cosmos 1933 Rocket - Orbit

View from above orbital plane
View from above orbital plane
View from above satellite
View from above satellite

Ground track
Ground track

The orbit data is extracted from the following two-line orbital elements,

1 18959U 88020B   15213.09876721  .00000148  00000-0  15205-4 0  9992
2 18959 082.5372 191.8365 0015570 236.7665 168.6587 14.83161095478881
Epoch (UTC): 01 August 2015 02:22:13
Eccentricity: 0.0015570
inclination: 82.5372°
perigee height: 608 km
apogee height: 630 km
right ascension of ascending node: 191.8365°
argument of perigee: 236.7665°
revolutions per day: 14.83161095
mean anomaly at epoch: 168.6587°
orbit number at epoch: 47888

The dashed part of the orbit path shows where the satellite is in the earth's shadow,  

DLR